Wetbulb
54.43 51.40 49.03 51.39 55.46 56.91 55.65 55.40 55.55 57.92 60.83 59.23 58.77 59.48 58.40 61.84 61.33 62.14 62.71 62.23 63.98 64.44 66.02 66.57 67.10 67.79 67.61 68.20 68.35 68.44 69.24 69.41 69.81 70.07 69.89 70.17 69.77 69.95 71.01 70.77 71.90 71.53 71.95 72.50
50.61 47.89 53.99 56.92 59.83 58.40 56.19 55.31 55.47 58.86 60.79 59.48 57.53 55.89 59.69 60.92 60.58 62.99 63.23 62.97 63.61 64.29 63.72 65.96 66.19 67.19 68.27 68.57 68.74 69.58 68.95 69.27 70.52 71.08 70.59 70.64 70.44 70.68 70.99 72.27 72.66 72.51 72.74 72.60
48.62 52.03 57.11 58.30 57.20 55.77 54.00 53.51 54.99 55.48 58.87 60.66 58.61 55.96 56.57 59.59 61.56 64.16 64.46 63.56 64.21 64.59 64.54 64.98 65.67 67.21 68.99 68.76 68.93 70.07 69.57 69.15 70.75 71.66 71.08 71.41 71.25 71.58 70.66 71.15 71.19 71.93 72.13 71.83
51.29 55.00 55.67 56.11 56.43 56.51 50.39 58.48 57.08 57.03 53.88 49.29 57.26 48.03 53.43 56.45 57.01 60.27 62.73 62.54 63.55 63.99 65.41 66.05 66.10 66.71 68.56 69.34 70.07 70.34 72.30 71.25 70.83 71.93 70.97 70.34 69.26 68.70 69.68 70.20 70.92 70.95 71.70 72.57
50.60 52.95 54.15 54.17 56.96 57.47 54.40 59.15 57.06 57.15 53.20 51.72 53.03 48.27 50.72 55.83 55.43 58.53 61.13 61.84 62.90 64.89 65.69 66.24 66.58 67.01 69.25 70.01 70.20 70.64 72.54 72.94 72.39 72.32 71.79 70.99 69.50 69.76 69.98 70.60 70.34 70.22 70.81 71.80
50.77 54.41 55.67 55.97 59.16 59.02 60.55 57.06 54.59 53.05 50.16 45.47 48.72 49.94 47.14 51.74 54.12 56.52 58.00 60.09 63.01 65.47 65.83 67.36 67.90 68.16 68.62 70.35 71.00 72.14 72.36 73.31 73.04 73.10 72.98 71.65 70.33 70.09 69.75 69.83 69.57 70.31 71.26 71.76
47.26 49.05 53.07 55.82 54.34 56.15 55.09 47.84 43.42 42.44 42.61 42.55 47.25 46.69 48.37 56.87 58.72 59.37 61.09 62.36 63.65 65.75 66.09 67.21 67.53 67.21 67.45 69.76 70.76 72.59 72.28 72.79 73.76 73.55 72.66 72.60 72.19 71.40 71.06 70.49 70.25 69.79 70.24 70.87
42.16 42.91 49.83 54.11 54.87 53.11 52.29 50.40 43.21 38.79 39.31 42.84 48.54 45.58 50.36 58.98 61.38 62.17 63.13 62.82 65.18 65.73 66.57 67.50 67.78 68.20 67.82 69.14 69.27 73.02 72.58 72.73 74.15 73.92 74.29 73.81 73.44 72.98 71.98 71.04 71.21 71.48 70.50 70.23
39.36 42.86 50.97 52.21 55.25 55.91 51.35 47.62 50.25 44.49 43.97 42.62 44.97 50.48 56.83 57.34 58.12 60.25 62.24 63.97 63.06 64.93 64.00 62.93 63.53 65.77 68.71 66.54 69.97 73.84 74.30 74.07 74.08 74.48 73.64 73.47 73.16 71.09 70.89 72.63 71.73 71.67 71.59 72.55
43.15 40.13 46.38 50.05 51.55 53.80 53.36 54.21 47.30 44.10 39.24 37.38 43.32 46.22 49.73 52.59 55.81 58.36 58.49 61.53 62.58 64.92 64.92 63.24 63.41 64.25 64.53 66.17 72.33 73.48 72.52 71.28 71.67 71.63 71.65 70.62 70.23 70.25 71.16 71.36 70.35 69.94 68.45 68.94
42.32 41.64 46.13 46.52 46.09 46.78 50.61 48.42 47.37 46.49 43.77 39.79 39.91 45.97 54.00 53.81 56.41 57.35 59.50 61.05 62.68 62.59 64.39 63.60 63.88 66.57 69.90 72.54 73.03 72.37 72.06 70.74 69.89 70.18 69.89 69.17 69.17 69.48 69.28 69.80 68.79 70.07 69.48 68.88
45.13 39.78 39.08 42.06 47.30 52.48 52.24 50.58 48.61 43.38 41.94 42.65 44.12 46.74 58.63 57.19 57.59 59.13 59.68 62.33 64.37 63.20 63.65 67.80 70.30 70.58 70.26 70.26 69.94 69.75 70.05 70.18 70.11 69.84 69.23 67.79 66.51 66.54 66.03 66.23 66.85 67.01 67.33 69.03
44.97 39.74 37.03 41.04 43.67 48.81 46.95 48.22 46.54 46.50 44.98 42.34 45.23 46.40 57.04 57.67 57.94 59.55 59.61 62.21 65.26 67.67 68.48 68.66 68.87 68.40 68.12 68.36 68.89 69.37 68.90 68.83 68.31 66.93 66.16 65.74 66.27 67.15 67.19 67.53 67.82 67.82 67.77 67.62
52.98 39.21 39.39 39.38 41.65 49.06 48.55 50.28 49.45 45.97 42.89 43.29 46.46 50.22 54.61 56.83 56.48 56.52 60.69 61.93 65.47 67.08 67.29 66.99 66.79 66.61 66.60 66.73 66.94 67.33 68.34 68.06 66.92 67.23 66.16 65.85 66.74 67.35 67.80 67.08 66.79 66.61 66.38 65.82
46.27 41.49 41.14 43.26 46.42 48.40 49.83 50.32 50.87 45.54 44.92 45.75 47.97 52.11 55.17 57.40 56.14 56.23 58.06 61.39 66.57 66.88 66.68 66.68 66.14 65.94 66.01 66.67 67.12 66.98 66.63 67.50 68.43 67.80 66.27 66.39 66.09 65.89 65.40 66.28 65.83 65.34 66.78 66.05
44.78 42.45 42.87 42.84 47.52 49.48 49.71 51.79 52.06 50.82 50.99 48.05 51.58 50.26 56.54 58.08 58.81 56.74 58.18 63.07 66.36 66.76 66.87 67.08 66.99 66.53 66.42 67.41 67.12 67.20 67.32 67.68 67.39 66.38 64.91 65.19 64.90 64.43 63.51 63.07 62.57 61.88 61.29 60.50
43.65 42.33 40.23 38.56 44.78 47.50 45.29 49.80 50.67 51.03 50.61 51.87 49.18 53.22 55.84 56.53 59.75 61.88 60.20 64.86 65.66 67.41 67.19 67.03 67.00 66.75 66.90 67.55 67.92 67.08 67.66 67.70 66.47 65.73 65.82 65.75 65.20 64.30 62.56 61.15 59.11 57.69 57.78 57.00
47.51 41.65 41.53 40.03 41.99 37.37 47.51 51.12 53.01 51.50 53.92 55.11 55.55 56.12 57.22 58.20 61.19 62.82 65.11 64.90 65.39 67.10 67.48 67.66 67.49 67.32 67.42 68.06 67.98 66.97 66.63 66.11 65.93 65.30 65.04 64.93 63.80 62.04 59.60 57.98 57.09 56.00 56.11 55.15
46.93 42.58 40.52 40.15 38.07 43.17 47.98 49.53 51.88 49.72 51.04 56.74 56.47 57.52 59.05 60.87 61.40 61.94 65.84 67.33 66.21 66.23 67.25 67.54 68.41 67.38 67.61 67.55 66.71 65.13 64.58 64.32 64.24 63.40 62.43 61.20 60.14 58.17 57.02 56.13 54.99 54.34 53.22 53.14
48.75 45.03 43.67 39.78 38.61 38.27 45.52 55.21 57.83 55.84 47.59 58.74 59.66 58.88 59.15 60.26 54.31 59.97 64.06 66.82 66.89 67.12 66.75 66.77 67.32 67.69 67.39 66.67 66.12 65.14 63.53 61.90 60.76 59.85 58.85 58.12 57.26 56.17 54.89 54.16 53.00 52.54 51.84 52.38
48.09 46.80 43.11 42.04 40.35 44.89 55.10 56.61 57.89 45.21 47.78 59.49 60.04 60.29 60.71 59.36 61.04 61.18 65.38 66.74 67.18 66.85 66.88 67.18 67.16 66.51 66.56 65.76 64.54 62.13 60.65 59.89 59.24 58.25 56.89 55.35 54.21 54.93 53.81 52.28 51.66 51.49 51.36 51.46
45.75 45.20 46.21 46.67 42.40 41.94 56.97 55.84 50.79 52.26 57.89 59.95 60.53 62.87 60.09 58.73 62.42 64.21 65.57 65.48 66.09 65.51 65.69 65.02 62.94 62.15 63.15 63.36 61.45 58.67 57.72 57.96 58.10 56.71 55.39 53.86 52.41 55.13 53.83 51.09 50.08 50.87 50.87 50.78
46.86 48.42 46.51 49.08 49.32 54.82 55.75 54.55 56.38 57.48 56.19 58.55 61.37 61.43 62.03 60.57 62.76 64.92 64.52 64.81 64.81 64.36 62.17 60.96 59.90 60.37 60.62 59.38 59.39 56.74 55.99 56.09 55.44 54.51 53.62 53.09 52.76 52.51 52.11 50.75 50.26 49.75 50.35 50.88
51.21 51.99 48.94 48.02 51.95 54.71 56.67 57.95 58.92 58.97 58.53 59.99 63.07 62.07 63.24 64.73 64.92 64.25 64.38 63.72 62.46 61.43 60.07 59.34 58.57 58.40 57.23 56.92 56.54 55.84 55.03 54.39 53.48 52.28 51.40 51.10 51.36 51.44 51.65 52.91 51.67 49.78 48.12 47.67
51.16 51.60 48.06 49.06 52.30 54.97 57.96 59.35 59.71 60.34 61.24 63.44 64.57 65.10 66.22 65.59 64.36 64.55 63.71 62.38 61.43 60.31 59.32 58.29 56.70 55.78 54.34 53.55 52.80 52.20 51.64 51.22 50.05 49.40 49.40 49.35 49.38 47.82 48.19 48.41 50.43 50.24 49.06 48.46
51.75 49.83 47.86 46.68 53.78 54.73 55.18 57.48 61.13 60.90 61.08 61.76 60.31 63.01 65.94 65.61 64.52 63.86 61.96 61.50 60.81 59.44 58.19 56.24 54.49 53.51 51.94 51.97 51.42 51.44 51.63 51.08 49.88 48.86 48.82 48.72 46.71 47.17 48.01 46.38 45.54 46.92 46.68 46.22
MSLP
1003.04 1004.08 1004.32 1004.60 1004.80 1005.37 1006.17 1006.47 1006.81 1006.62 1006.80 1007.24 1008.21 1008.45 1008.33 1008.12 1008.23 1008.00 1008.26 1008.53 1008.14 1008.09 1007.92 1008.24 1008.51 1008.92 1009.41 1009.99 1010.65 1011.07 1011.41 1011.71 1012.24 1012.77 1013.28 1013.47 1013.39 1013.38 1013.48 1013.22 1013.27 1013.42 1013.53 1013.83
1004.13 1004.22 1003.54 1003.97 1004.68 1004.66 1005.63 1006.27 1006.30 1006.48 1007.06 1007.75 1008.65 1008.71 1008.19 1008.04 1007.66 1006.67 1007.34 1007.93 1008.15 1007.82 1008.03 1008.28 1008.66 1009.35 1009.28 1009.54 1010.00 1010.61 1011.11 1011.58 1011.82 1012.07 1012.29 1012.60 1012.80 1012.79 1012.73 1012.65 1012.73 1012.95 1013.12 1013.32
1004.18 1003.22 1003.20 1003.61 1004.07 1004.70 1005.53 1005.89 1005.53 1005.99 1007.08 1008.13 1008.99 1009.56 1008.90 1007.44 1007.57 1007.48 1007.13 1007.29 1007.61 1007.26 1007.40 1008.05 1008.57 1008.60 1008.85 1009.26 1009.54 1009.83 1010.55 1011.10 1011.32 1011.62 1012.13 1012.45 1012.61 1012.67 1012.81 1012.69 1012.60 1012.59 1012.66 1012.77
1003.54 1002.76 1002.98 1002.98 1003.46 1004.17 1005.24 1004.85 1003.80 1005.90 1007.38 1008.84 1009.67 1010.31 1009.11 1007.90 1007.78 1007.82 1007.33 1007.52 1007.06 1007.62 1007.50 1007.66 1007.96 1008.45 1008.46 1008.49 1008.90 1009.36 1009.82 1010.41 1010.68 1011.05 1011.73 1012.02 1012.15 1012.52 1012.38 1012.43 1012.33 1012.34 1012.25 1012.30
1002.89 1002.61 1002.36 1002.24 1002.68 1003.40 1004.05 1004.22 1004.62 1005.59 1007.72 1009.12 1010.35 1010.80 1008.69 1007.97 1008.41 1007.37 1007.39 1007.62 1008.25 1007.95 1008.33 1008.18 1007.45 1007.65 1007.61 1008.14 1008.30 1008.71 1009.42 1009.83 1010.02 1010.47 1010.98 1011.57 1011.88 1011.98 1012.06 1012.13 1012.28 1012.28 1012.24 1011.84
1002.78 1002.23 1002.12 1001.47 1001.66 1002.33 1003.19 1003.93 1005.19 1006.41 1008.03 1009.85 1010.18 1010.64 1008.83 1008.55 1007.62 1007.40 1007.47 1008.04 1008.55 1008.03 1008.19 1008.10 1008.64 1008.21 1007.69 1007.71 1008.17 1008.48 1009.09 1009.61 1009.91 1010.17 1010.51 1011.04 1011.43 1011.69 1011.89 1011.95 1012.26 1012.09 1011.91 1011.81
1002.91 1002.33 1001.75 1001.31 1001.73 1002.29 1003.25 1004.99 1006.49 1007.98 1008.95 1009.69 1009.65 1010.23 1009.11 1008.15 1007.00 1006.57 1006.71 1007.15 1008.58 1008.24 1007.48 1008.17 1008.72 1008.46 1007.67 1007.86 1008.48 1008.73 1008.77 1009.36 1009.70 1010.06 1010.34 1010.73 1010.99 1011.22 1011.48 1011.69 1011.95 1012.10 1011.99 1011.81
1003.73 1002.68 1001.51 1000.90 1001.20 1001.86 1003.06 1004.21 1006.32 1008.26 1009.75 1009.88 1009.60 1009.45 1008.15 1007.44 1006.60 1005.83 1005.60 1005.60 1007.20 1008.23 1006.75 1006.93 1007.92 1008.29 1007.63 1007.86 1008.19 1008.63 1009.36 1009.43 1009.78 1010.05 1010.05 1009.73 1010.76 1010.78 1011.16 1012.19 1012.88 1012.57 1012.24 1011.73
1003.64 1002.69 1001.14 1000.92 1001.11 1001.32 1002.57 1003.98 1005.06 1007.64 1009.58 1009.86 1009.89 1009.67 1008.24 1007.26 1006.12 1005.86 1006.11 1006.28 1007.35 1007.36 1007.31 1005.62 1005.89 1007.96 1007.45 1008.46 1007.98 1008.28 1008.98 1009.87 1009.96 1010.11 1010.17 1009.80 1010.02 1010.97 1011.20 1011.21 1011.50 1011.58 1012.30 1011.76
1002.97 1003.25 1001.41 1000.50 1000.66 1000.91 1001.41 1002.95 1005.33 1007.71 1009.41 1010.41 1010.18 1009.48 1008.63 1007.93 1006.81 1006.81 1006.23 1006.50 1006.68 1006.81 1007.08 1007.38 1007.79 1008.34 1007.93 1008.02 1008.29 1008.83 1009.34 1010.27 1010.20 1010.42 1010.56 1010.90 1011.04 1010.77 1011.09 1011.57 1011.91 1012.27 1012.19 1011.73
1002.56 1003.08 1001.56 1001.47 1001.08 1001.08 1002.22 1003.07 1005.09 1006.87 1008.28 1009.24 1009.74 1009.09 1007.68 1007.28 1006.45 1005.50 1005.83 1006.90 1007.21 1007.28 1007.71 1007.60 1008.49 1009.17 1008.52 1008.58 1009.15 1009.43 1009.80 1010.26 1010.88 1010.85 1011.14 1011.43 1011.52 1011.50 1011.61 1011.89 1012.04 1011.97 1011.96 1011.93
1001.62 1002.88 1002.84 1001.87 1000.52 1000.43 1000.81 1001.84 1003.27 1005.50 1007.64 1008.46 1008.37 1007.65 1006.30 1006.30 1005.63 1005.90 1006.23 1007.77 1007.45 1008.44 1008.42 1008.64 1009.10 1009.09 1009.54 1009.97 1009.86 1010.10 1010.41 1010.72 1011.10 1011.34 1011.63 1011.91 1011.91 1012.05 1012.13 1012.13 1012.11 1012.06 1012.09 1012.14
1000.70 1002.35 1002.99 1002.23 1000.98 1000.00 1000.17 1000.55 1001.45 1002.86 1004.69 1006.32 1007.46 1006.75 1006.07 1006.21 1006.17 1006.29 1007.35 1007.82 1007.66 1007.91 1008.73 1009.19 1009.57 1009.82 1010.12 1010.36 1010.35 1010.43 1011.04 1011.39 1011.48 1011.68 1012.04 1012.28 1012.40 1012.40 1012.52 1012.54 1012.54 1012.45 1012.45 1012.55
999.52 1001.69 1002.44 1002.56 1001.59 1000.63 1000.18 999.97 1000.30 1001.62 1003.50 1004.65 1005.14 1005.48 1005.93 1005.58 1005.85 1006.75 1006.79 1007.57 1007.83 1008.04 1008.67 1009.41 1009.98 1010.46 1010.52 1010.45 1010.69 1011.10 1011.52 1011.58 1011.67 1011.95 1012.37 1012.59 1012.74 1012.67 1012.75 1012.75 1012.78 1012.79 1012.80 1012.85
999.29 1001.41 1001.77 1001.50 1001.17 1000.58 999.96 999.56 999.48 1000.30 1000.92 1002.33 1002.93 1003.69 1003.89 1004.18 1005.25 1006.42 1006.66 1007.18 1007.65 1007.86 1008.49 1009.16 1010.20 1010.45 1010.34 1010.34 1010.73 1011.09 1011.53 1011.78 1011.95 1012.15 1012.45 1012.79 1012.92 1012.93 1012.92 1013.03 1013.19 1013.14 1013.17 1013.25
999.91 1001.02 1001.49 1001.37 1000.92 1000.34 1000.04 999.19 998.75 998.96 999.60 1000.45 1001.38 1002.69 1002.51 1003.93 1005.03 1006.09 1006.37 1006.43 1006.91 1007.56 1008.17 1008.75 1009.29 1009.76 1009.80 1010.30 1010.87 1011.24 1011.75 1012.09 1012.18 1012.45 1012.83 1012.98 1013.19 1013.33 1013.50 1013.63 1013.80 1013.77 1013.81 1013.86
1001.03 1001.45 1002.25 1001.90 1001.32 1000.79 1000.11 998.93 998.44 998.40 998.59 999.70 1001.06 1001.06 1001.84 1003.90 1004.59 1004.48 1005.39 1005.92 1006.49 1007.10 1007.70 1008.28 1008.72 1009.33 1010.18 1010.56 1010.89 1011.50 1011.87 1012.25 1012.62 1012.95 1013.24 1013.40 1013.57 1013.82 1013.98 1014.07 1014.30 1014.46 1014.47 1014.35
1001.10 1002.08 1002.44 1002.57 1001.93 1001.41 999.73 998.47 998.18 998.53 999.39 999.32 999.53 1000.36 1001.08 1002.06 1003.10 1003.60 1004.26 1004.85 1005.95 1006.66 1007.22 1007.62 1008.56 1009.46 1010.23 1010.74 1011.18 1011.63 1012.01 1012.33 1012.89 1013.09 1013.49 1013.73 1013.87 1014.07 1014.41 1014.66 1014.84 1014.82 1014.81 1014.79
1000.92 1002.10 1002.95 1003.01 1002.78 1001.73 999.83 998.78 998.43 998.59 1000.15 1000.14 1000.22 1001.20 1001.80 1002.76 1003.53 1003.96 1003.71 1003.61 1004.68 1005.92 1006.64 1007.33 1008.13 1009.19 1010.21 1010.77 1011.53 1011.99 1012.37 1012.59 1013.01 1013.59 1014.02 1014.15 1014.27 1014.57 1014.88 1015.04 1015.09 1015.04 1015.00 1014.99
1001.51 1001.91 1003.01 1003.94 1003.41 1002.43 1000.80 1000.01 999.21 998.88 1000.64 1000.98 1000.18 1001.16 1002.05 1002.98 1004.06 1003.74 1003.69 1003.98 1004.24 1005.18 1006.22 1007.46 1008.46 1009.42 1010.54 1011.19 1011.38 1011.95 1012.56 1013.09 1013.57 1013.87 1014.28 1014.47 1014.63 1014.89 1015.10 1015.21 1015.26 1015.12 1015.09 1015.15
1004.10 1004.35 1004.30 1004.14 1003.72 1002.62 1001.96 1000.85 999.33 1000.20 1000.85 1001.00 1001.15 1001.49 1002.27 1002.73 1003.77 1004.25 1005.22 1004.35 1004.66 1006.00 1006.98 1007.74 1008.66 1009.78 1010.78 1011.51 1011.76 1012.43 1012.83 1013.43 1013.88 1014.26 1014.54 1014.79 1014.94 1015.07 1015.13 1015.14 1015.20 1015.16 1015.23 1015.25
1005.95 1006.21 1006.15 1005.33 1004.69 1003.89 1002.41 1001.14 1001.79 1002.67 1001.39 1000.49 1001.76 1001.77 1002.95 1002.77 1001.61 1002.98 1005.10 1005.31 1006.00 1007.15 1007.89 1008.48 1009.54 1010.55 1011.44 1011.79 1012.20 1012.79 1013.37 1013.70 1014.17 1014.55 1014.79 1015.04 1015.05 1014.98 1015.02 1015.20 1015.23 1015.23 1015.35 1015.28
1007.39 1007.01 1006.69 1006.34 1005.59 1004.63 1003.87 1003.83 1003.29 1002.43 1002.12 1002.79 1002.19 1001.77 1001.11 1002.26 1002.30 1003.46 1004.01 1005.82 1006.96 1007.61 1008.61 1009.72 1010.31 1011.49 1012.16 1012.35 1012.62 1013.32 1013.79 1014.04 1014.49 1014.81 1014.98 1015.13 1015.10 1015.01 1014.98 1015.25 1015.24 1015.18 1015.14 1015.08
1008.22 1007.88 1007.56 1006.71 1005.75 1004.86 1004.00 1003.48 1003.12 1002.58 1002.79 1002.14 1002.51 1002.26 1002.00 1001.45 1002.47 1003.47 1004.53 1005.95 1007.52 1008.32 1009.12 1010.12 1011.13 1012.00 1012.72 1012.77 1013.14 1013.58 1014.07 1014.24 1014.65 1014.96 1015.14 1015.24 1015.31 1015.26 1015.10 1015.03 1015.02 1015.09 1014.96 1015.01
1008.64 1008.43 1008.18 1007.10 1005.72 1004.78 1004.06 1003.23 1003.24 1002.34 1002.20 1002.32 1001.83 1002.64 1002.35 1001.71 1002.62 1003.57 1004.82 1006.63 1007.78 1008.87 1010.02 1010.67 1011.55 1012.41 1013.17 1013.06 1013.51 1014.03 1014.31 1014.38 1014.85 1015.21 1015.27 1015.28 1015.27 1015.24 1015.14 1014.95 1014.74 1014.93 1014.73 1014.67
1007.95 1007.32 1007.50 1006.63 1005.07 1005.18 1003.95 1002.79 1002.56 1002.90 1001.89 1003.63 1003.33 1003.42 1002.41 1002.09 1003.05 1004.35 1005.87 1006.40 1007.90 1009.43 1010.42 1011.27 1011.91 1012.60 1013.12 1013.53 1014.21 1014.41 1014.26 1014.44 1015.01 1015.27 1015.32 1015.37 1015.28 1015.13 1015.01 1014.94 1015.15 1015.16 1014.93 1014.76
Wind_Speed
7 3 6 9 10 3 8 4 2 2 6 3 2 3 5 5 5 5 2 8 15 15 12 13 11 11 12 10 12 13 13 12 8 4 4 3 5 4 3 6 7 7 6 6
6 3 11 5 8 16 7 6 6 5 12 5 2 5 9 10 11 8 7 6 14 14 8 12 7 7 13 13 13 12 11 7 8 6 4 3 3 3 3 3 5 6 6 6
6 11 2 4 6 9 2 6 7 5 7 6 6 7 9 7 5 7 3 5 11 16 15 12 10 13 13 13 14 13 13 10 10 8 3 2 1 1 1 3 3 5 6 6
7 7 7 8 7 10 4 15 11 13 7 2 4 5 6 6 15 11 10 8 10 7 9 15 13 12 16 17 14 12 11 13 12 9 6 7 5 5 4 3 3 4 5 6
11 5 4 3 6 13 9 14 13 3 6 6 3 3 9 3 9 17 11 5 2 4 4 14 18 15 16 15 15 13 11 11 12 12 11 9 6 4 2 3 5 5 5 7
8 1 4 9 5 8 11 8 3 5 5 4 7 8 5 2 5 3 3 5 5 10 7 3 7 5 10 13 14 13 13 11 11 12 10 12 9 6 4 4 3 4 4 4
8 6 5 6 5 2 5 6 0 4 5 6 3 3 7 5 2 5 3 4 7 9 13 9 11 3 3 6 8 10 13 12 10 12 9 8 8 8 8 5 4 3 3 2
4 9 4 4 9 11 8 8 7 4 3 4 3 4 5 6 12 15 16 3 15 5 10 9 12 6 6 5 3 8 7 7 7 6 8 8 7 4 4 5 7 5 5 3
5 8 6 5 4 9 4 3 6 9 3 4 2 2 6 9 4 10 10 9 10 11 9 17 18 8 8 6 5 9 10 4 5 7 5 4 2 3 3 11 8 4 6 1
7 4 6 13 3 2 11 9 5 4 5 3 4 2 5 6 5 9 6 2 3 7 18 14 3 6 4 5 6 8 9 5 4 5 4 5 2 4 7 6 5 3 1 4
7 5 17 3 6 8 1 2 6 7 6 7 5 6 7 11 9 11 11 5 4 6 10 6 2 6 3 7 7 9 9 9 6 6 5 4 5 6 5 5 4 4 4 4
12 7 7 13 8 6 7 10 8 7 6 2 4 7 10 17 18 7 3 4 3 7 5 7 8 9 8 6 7 7 7 7 6 6 6 6 6 6 6 5 4 3 4 5
7 2 4 14 11 4 1 5 3 5 4 9 8 7 6 5 7 6 1 6 8 14 12 9 8 9 8 7 7 9 6 6 6 6 6 6 6 6 6 6 5 5 5 5
11 5 8 10 10 2 6 3 4 7 5 6 8 8 6 14 11 2 6 8 13 16 16 11 8 8 8 8 8 8 7 6 6 7 6 6 5 5 6 6 6 6 5 5
8 5 7 7 8 5 7 7 8 6 7 8 8 13 19 22 15 7 6 6 10 15 15 13 11 9 9 8 7 6 6 6 5 6 6 6 6 5 6 6 5 5 7 6
5 5 6 4 3 5 5 10 8 4 4 3 11 3 8 8 7 9 9 7 12 13 13 12 10 9 8 7 7 6 6 6 6 7 6 6 6 6 6 6 6 7 6 6
2 4 4 6 2 5 5 9 7 5 3 11 9 10 10 8 11 8 10 10 12 12 11 11 10 8 7 7 6 6 7 7 6 6 6 5 4 5 6 6 6 6 5 5
4 5 4 4 5 2 12 5 7 2 7 5 9 14 17 15 7 9 10 10 9 12 12 10 9 7 6 5 8 8 7 9 7 7 5 4 5 6 6 6 5 4 3 4
6 6 1 5 4 6 11 2 3 2 3 2 13 12 12 9 6 3 7 15 12 9 11 11 11 8 10 10 9 8 6 8 8 6 5 5 5 6 5 4 4 3 4 4
6 4 5 3 5 8 7 11 11 3 3 4 20 18 12 6 5 7 10 10 12 13 10 12 12 12 11 7 9 10 7 7 6 6 6 5 4 5 4 2 1 1 1 2
6 5 3 2 3 3 9 18 8 3 10 9 9 11 10 7 7 2 7 9 13 12 15 14 13 12 10 6 7 7 7 7 6 6 6 5 3 4 3 1 1 2 3 4
2 3 1 2 1 2 10 8 8 6 8 13 7 12 12 5 7 13 9 13 17 17 14 13 12 7 6 7 10 9 8 6 6 6 6 4 3 4 3 2 3 2 3 4
3 3 4 5 6 6 4 6 5 2 5 3 8 18 17 19 9 15 17 17 15 17 13 11 12 10 6 6 8 10 6 7 6 5 4 3 2 2 3 3 5 3 2 3
3 3 0 3 3 5 8 4 7 5 1 7 9 13 17 20 20 19 17 16 14 13 13 12 12 11 8 7 7 7 6 6 6 4 1 2 2 4 5 4 3 3 3 3
3 3 3 6 8 7 6 2 1 6 7 5 14 18 13 19 18 19 17 16 14 12 9 9 11 10 8 8 8 7 6 7 6 3 1 1 1 2 3 3 3 3 2 4
5 6 5 8 7 5 8 3 1 6 3 2 10 10 9 15 18 18 14 14 14 12 10 9 10 11 8 8 7 5 5 6 5 3 1 1 1 2 2 2 4 14 7 11
Wind_Direction
302 66 252 218 193 148 147 163 196 133 203 100 97 331 262 337 257 183 158 236 200 204 207 195 192 175 177 170 167 179 185 194 171 159 161 187 208 205 199 214 221 217 201 208
3 245 236 192 149 129 116 116 279 88 154 94 13 295 287 283 271 194 165 200 218 204 185 189 178 171 180 178 179 177 185 181 190 192 191 163 183 219 193 206 212 200 211 205
173 246 15 168 151 119 148 159 220 168 147 68 100 326 290 280 287 333 178 222 211 205 190 183 178 185 181 186 185 187 177 185 193 188 142 85 79 328 171 237 236 215 206 212
241 268 211 175 166 133 126 230 245 143 133 199 124 263 273 258 295 296 277 266 203 212 202 187 186 194 189 198 190 188 179 180 193 176 184 189 181 205 218 208 221 243 222 229
244 284 233 176 209 155 199 236 248 91 113 101 260 68 265 106 259 266 256 257 306 51 283 206 195 194 202 197 193 189 187 186 187 190 195 198 211 207 237 232 232 238 247 236
237 304 223 218 166 180 177 240 31 354 133 115 212 197 287 161 253 33 87 88 203 84 51 271 269 234 222 206 201 190 185 194 190 190 190 192 198 204 218 238 249 250 249 248
316 290 264 253 99 123 95 78 23 11 28 202 210 140 244 280 177 148 291 73 118 88 102 64 355 206 57 209 218 209 187 196 193 200 202 199 200 199 219 224 222 259 261 244
198 309 194 221 176 188 180 154 149 171 196 249 281 208 266 243 254 56 5 296 94 88 116 116 216 222 183 161 59 203 202 184 174 188 215 191 208 203 205 49 358 315 272 249
168 264 311 280 239 143 204 140 169 106 353 84 188 342 310 324 89 74 31 46 139 164 176 189 212 242 229 126 20 159 153 150 167 202 240 260 197 291 95 138 214 237 292 231
218 274 243 283 343 255 164 159 71 9 135 201 293 260 203 246 210 154 100 295 204 211 199 215 223 278 353 6 65 100 98 110 69 39 70 65 46 71 72 84 89 109 61 59
148 128 272 112 200 224 132 149 59 113 132 159 160 245 206 223 222 229 153 179 226 180 210 184 164 258 88 63 97 102 101 88 88 84 82 63 48 64 71 96 95 76 71 72
196 162 225 233 255 235 205 197 151 130 207 155 158 252 193 210 225 249 151 104 238 172 171 149 134 104 103 125 98 102 94 92 83 88 82 69 69 71 69 61 61 59 79 59
178 204 290 316 340 2 224 155 153 95 89 180 145 250 222 227 256 249 32 142 139 132 126 119 122 121 123 122 110 100 109 127 118 106 98 85 83 81 74 71 60 52 73 74
106 132 159 213 220 199 302 263 182 154 130 180 200 180 223 230 238 220 187 156 155 144 145 143 138 145 148 137 132 130 137 133 128 113 102 94 75 79 93 80 67 67 67 67
118 173 171 226 238 253 257 271 262 172 207 161 205 171 199 216 192 200 193 162 143 142 147 145 157 160 147 129 122 126 129 125 125 112 105 96 86 76 74 64 61 57 61 60
349 210 168 252 302 309 288 288 263 257 237 183 149 224 216 145 148 168 196 176 156 151 151 151 146 143 130 129 142 142 126 119 107 101 103 108 97 83 78 73 52 48 44 47
76 126 100 255 328 7 332 259 260 287 239 137 159 208 142 144 191 183 190 170 160 160 150 149 148 131 148 157 147 127 129 120 102 115 118 111 119 98 76 73 62 45 36 29
198 148 129 211 58 285 244 269 240 240 23 335 100 147 167 167 146 149 168 152 160 158 158 145 140 153 149 115 118 117 117 112 121 101 89 88 83 80 70 65 56 38 33 31
177 118 160 136 178 273 305 338 341 142 332 336 126 130 133 130 62 358 180 165 156 157 161 159 158 135 133 138 138 122 124 121 112 112 93 81 86 87 74 54 33 18 28 11
54 77 134 104 164 218 243 338 349 109 342 218 146 154 140 110 146 201 190 161 147 148 138 125 126 129 133 147 138 131 129 114 120 119 120 102 100 113 104 90 343 330 20 331
1 349 154 178 214 331 334 310 291 205 219 179 178 138 137 121 146 168 265 141 136 127 120 120 122 135 150 146 122 120 115 125 133 123 118 103 98 131 153 224 298 320 331 349
152 110 44 10 20 242 351 353 65 281 347 166 167 134 106 113 215 151 161 121 118 121 117 108 103 92 102 129 126 114 113 128 127 131 123 127 126 157 176 249 300 311 322 317
304 193 189 159 205 239 268 218 234 86 114 277 155 156 149 177 193 143 130 126 128 124 116 111 107 101 75 81 112 113 135 123 121 118 134 183 224 265 272 270 286 315 320 280
16 351 331 25 266 260 290 309 23 27 81 220 193 186 191 150 146 133 124 126 129 126 121 120 110 108 108 101 95 108 112 105 115 134 181 323 296 289 277 276 256 269 275 247
213 357 292 278 278 303 195 218 261 324 17 311 182 199 184 136 138 135 130 131 124 122 124 124 121 118 125 108 101 109 109 103 94 83 30 18 342 351 342 304 264 314 342 212
170 211 169 234 225 207 256 245 286 281 104 4 38 311 137 132 136 133 124 127 130 130 126 121 120 123 121 110 118 123 114 105 112 101 39 295 322 318 338 340 41 27 103 99